FW8892 Weather Reports


Display with metric or nautical units.
time (UTC)temp
F
wind
direction
speed
MPH
gust
MPH
rain 1hr
in
rain 24hr
in
rain mn
in
humidity
%
barometer
mb
20260503023526 43 0 0.0 0.0 0.00 0.02 0.02 92 1019.2
20260503023052 43 0 0.0 0.0 0.00 0.02 0.02 92 1019.2
20260503022529 43 0 0.0 0.0 0.00 0.02 0.02 92 1019.2
20260503022031 43 0 0.0 0.0 0.00 0.02 0.02 92 1019.0
20260503021551 44 0 0.0 0.0 0.00 0.02 0.02 91 1019.1
20260503021030 44 0 0.0 0.0 0.00 0.02 0.02 91 1019.0
20260503020529 44 0 0.0 0.0 0.00 0.02 0.02 91 1019.0
20260503020048 44 0 0.0 0.0 0.00 0.02 0.02 90 1019.0
20260503015526 45 0 0.0 0.0 0.00 0.02 0.02 90 1018.9
20260503015030 45 0 0.0 0.0 0.00 0.02 0.02 89 1018.9
20260503014548 45 0 0.0 0.0 0.00 0.02 0.02 89 1018.9
20260503014029 45 0 0.0 0.0 0.00 0.02 0.02 88 1018.8
20260503013530 46 0 0.0 0.0 0.00 0.02 0.02 88 1018.9
20260503013045 46 0 0.0 1.0 0.00 0.02 0.02 87 1018.8
20260503012529 46 0 0.0 1.0 0.00 0.02 0.02 87 1018.8
20260503012030 47 0 0.0 1.0 0.00 0.02 0.02 87 1018.8
20260503011557 47 0 0.0 0.0 0.00 0.02 0.02 86 1018.7
20260503011029 47 0 0.0 0.0 0.00 0.02 0.02 85 1018.6
20260503010529 48 0 0.0 0.0 0.00 0.02 0.02 83 1018.6
20260503010051 48 0 0.0 1.0 0.00 0.02 0.02 83 1018.6
20260503005530 48 0 0.0 1.0 0.00 0.02 0.02 82 1018.6
20260503005030 49 338 0.0 1.0 0.00 0.02 0.02 81 1018.5
20260503004548 49 0 0.0 2.0 0.00 0.02 0.02 81 1018.5
20260503004029 49 0 0.0 2.0 0.00 0.02 0.02 80 1018.4
20260503003529 50 0 0.0 2.0 0.00 0.02 0.02 79 1018.5
20260503003049 50 340 0.0 2.0 0.00 0.02 0.02 79 1018.4
20260503002529 50 340 0.0 3.0 0.00 0.02 0.02 78 1018.5
20260503002029 50 343 0.0 3.0 0.00 0.02 0.02 78 1018.3
20260503001547 51 339 0.0 5.0 0.00 0.02 0.02 78 1018.3
20260503001029 51 347 1.0 5.0 0.00 0.02 0.02 77 1018.2
20260503000529 51 328 3.0 8.0 0.00 0.02 0.02 76 1018.0
20260503000059 51 342 1.0 10.0 0.00 0.02 0.02 76 1018.0
20260502235529 51 355 4.0 10.0 0.00 0.02 0.02 75 1017.8
20260502235029 52 355 3.0 8.0 0.00 0.02 0.02 76 1017.9
20260502234546 52 323 2.0 8.0 0.00 0.02 0.02 77 1017.8
20260502234029 52 326 1.0 9.0 0.00 0.02 0.02 77 1017.8
20260502233529 52 355 1.0 9.0 0.00 0.02 0.02 77 1017.8
20260502233040 52 350 3.0 7.0 0.00 0.02 0.02 76 1017.9
20260502232530 52 318 2.0 6.0 0.00 0.02 0.02 76 1017.8
20260502232029 53 15 3.0 8.0 0.00 0.02 0.02 75 1017.8
20260502231547 53 315 2.0 8.0 0.00 0.02 0.02 75 1017.7
20260502231029 53 13 2.0 8.0 0.00 0.02 0.02 77 1017.5
20260502230529 53 346 3.0 10.0 0.00 0.02 0.02 76 1017.3
20260502230053 53 10 4.0 10.0 0.00 0.02 0.02 76 1017.5
20260502225529 53 346 4.0 10.0 0.00 0.02 0.02 75 1017.4
20260502225029 53 360 3.0 9.0 0.01 0.02 0.02 77 1017.4
20260502224544 52 324 3.0 10.0 0.02 0.02 0.02 78 1017.3
20260502224029 52 55 4.0 11.0 0.02 0.02 0.02 78 1017.4
20260502223528 52 34 3.0 11.0 0.02 0.02 0.02 79 1017.5
20260502223045 52 338 2.0 10.0 0.02 0.02 0.02 78 1017.5
20260502222529 52 50 3.0 11.0 0.02 0.02 0.02 78 1017.5
20260502222029 53 348 3.0 17.0 0.02 0.02 0.02 76 1017.4
20260502221544 53 331 5.0 17.0 0.02 0.02 0.02 76 1017.3
20260502221032 54 296 7.0 16.0 0.02 0.02 0.02 75 1017.2
20260502220529 54 335 4.0 11.0 0.02 0.02 0.02 78 1017.1
20260502220043 55 342 3.0 10.0 0.02 0.02 0.02 79 1016.9
20260502215529 55 350 0.0 5.0 0.02 0.02 0.02 77 1016.9
20260502215029 56 252 1.0 5.0 0.01 0.01 0.01 74 1016.9
20260502214538 56 267 1.0 4.0 0.00 0.00 0.00 70 1017.0
20260502214030 56 244 1.0 4.0 0.00 0.00 0.00 67 1016.7
20260502213530 57 244 2.0 4.0 0.00 0.00 0.00 67 1016.2
20260502213045 57 211 1.0 3.0 0.00 0.00 0.00 68 1016.0
20260502212532 57 294 0.0 4.0 0.00 0.00 0.00 68 1015.7
20260502212028 57 303 0.0 5.0 0.00 0.00 0.00 68 1015.7
20260502211553 57 277 1.0 13.0 0.00 0.00 0.00 70 1015.8
20260502211029 57 329 4.0 13.0 0.00 0.00 0.00 66 1016.0
20260502210529 59 236 3.0 12.0 0.00 0.00 0.00 59 1016.2
20260502210044 60 267 5.0 12.0 0.00 0.00 0.00 55 1016.2
20260502205529 62 294 1.0 6.0 0.00 0.00 0.00 52 1015.8
20260502205028 63 182 2.0 6.0 0.00 0.00 0.00 51 1015.7
20260502204542 63 307 1.0 6.0 0.00 0.00 0.00 52 1015.5
20260502204029 63 0 2.0 9.0 0.00 0.00 0.00 52 1015.4
20260502203530 63 0 2.0 9.0 0.00 0.00 0.00 52 1015.5
20260502203041 63 202 3.0 10.0 0.00 0.00 0.00 56 1015.6
20260502202530 62 242 3.0 10.0 0.00 0.00 0.00 55 1015.6
20260502202030 62 244 2.0 11.0 0.00 0.00 0.00 52 1015.9
20260502201540 62 214 4.0 13.0 0.00 0.00 0.00 52 1016.0
20260502201030 62 216 5.0 13.0 0.00 0.00 0.00 48 1016.1
20260502200530 63 230 3.0 10.0 0.00 0.00 0.00 50 1016.0
20260502200054 63 231 3.0 10.0 0.00 0.00 0.00 50 1016.0
20260502195527 63 225 2.0 10.0 0.00 0.00 0.00 50 1016.0
20260502195029 64 227 1.0 6.0 0.00 0.00 0.00 51 1016.0
20260502194546 64 287 0.0 4.0 0.00 0.00 0.00 46 1016.0
20260502194029 64 0 0.0 6.0 0.00 0.00 0.00 51 1016.1
20260502193528 64 0 2.0 6.0 0.00 0.00 0.00 56 1016.1
20260502193046 64 185 1.0 3.0 0.00 0.00 0.00 57 1016.1
20260502192530 63 0 0.0 2.0 0.00 0.00 0.00 48 1016.1
20260502192029 64 0 0.0 2.0 0.00 0.00 0.00 45 1016.3
20260502191550 64 0 0.0 4.0 0.00 0.00 0.00 47 1016.2
20260502191029 64 0 1.0 4.0 0.00 0.00 0.00 44 1016.2
20260502190530 64 0 0.0 3.0 0.00 0.00 0.00 45 1016.1
20260502190041 64 0 0.0 3.0 0.00 0.00 0.00 47 1016.1
20260502185529 64 0 0.0 4.0 0.00 0.00 0.00 49 1016.2
20260502185029 64 0 0.0 4.0 0.00 0.00 0.00 45 1016.2
20260502184541 65 298 1.0 8.0 0.00 0.00 0.00 45 1016.3
20260502184032 65 0 0.0 8.0 0.00 0.00 0.00 47 1016.2
20260502183528 65 265 2.0 8.0 0.00 0.00 0.00 47 1016.3
20260502183048 65 247 0.0 4.0 0.00 0.00 0.00 47 1016.3
20260502182529 65 0 0.0 8.0 0.00 0.00 0.00 49 1016.3
20260502182029 64 245 0.0 8.0 0.00 0.00 0.00 55 1016.4
20260502181551 63 320 2.0 8.0 0.00 0.00 0.00 49 1016.3
20260502181028 63 0 2.0 7.0 0.00 0.00 0.00 45 1016.3
20260502180531 64 288 0.0 4.0 0.00 0.00 0.00 47 1016.4
20260502164030 63 68 3.0 10.0 0.00 0.00 0.00 51 1017.3
20260502163530 64 65 2.0 9.0 0.00 0.00 0.00 45 1017.4
20260502163100 65 0 2.0 8.0 0.00 0.00 0.00 45 1017.6
20260502162528 65 67 3.0 6.0 0.00 0.00 0.00 47 1017.5
20260502162030 65 0 0.0 1.0 0.00 0.00 0.00 51 1017.7
20260502161557 64 0 0.0 3.0 0.00 0.00 0.00 46 1017.6
20260502161027 64 0 0.0 6.0 0.00 0.00 0.00 51 1017.8
20260502160530 63 321 0.0 6.0 0.00 0.00 0.00 53 1017.7
20260502152031 63 62 0.0 2.0 0.00 0.00 0.00 46 1017.8
20260502151550 63 250 0.0 5.0 0.00 0.00 0.00 50 1017.7
20260502151031 63 296 0.0 5.0 0.00 0.00 0.00 53 1017.7
20260502150530 62 0 1.0 4.0 0.00 0.00 0.00 54 1017.7
20260502130528 56 0 1.0 3.0 0.00 0.00 0.00 67 1017.2
20260502123529 52 94 1.0 4.0 0.00 0.00 0.00 74 1017.1
20260502123056 51 71 0.0 3.0 0.00 0.00 0.00 75 1017.2
20260502122529 50 100 0.0 2.0 0.00 0.00 0.00 78 1017.2
20260502122030 50 0 0.0 0.0 0.00 0.00 0.00 81 1017.1
20260502121544 48 0 0.0 0.0 0.00 0.00 0.00 86 1017.2
20260502121029 47 0 0.0 0.0 0.00 0.00 0.00 88 1017.0
20260502120529 46 0 0.0 0.0 0.00 0.00 0.00 89 1017.0
20260502115531 43 0 0.0 0.0 0.00 0.00 0.00 94 1016.9
20260502115030 42 0 0.0 0.0 0.00 0.00 0.00 94 1016.9
20260502114549 41 0 0.0 0.0 0.00 0.00 0.00 96 1016.9
20260502114029 41 0 0.0 0.0 0.00 0.00 0.00 96 1016.7
20260502113541 40 0 0.0 0.0 0.00 0.00 0.00 96 1016.6
20260502113048 39 0 0.0 0.0 0.00 0.00 0.00 96 1016.6
20260502112532 38 0 0.0 0.0 0.00 0.00 0.00 94 1016.5
20260502112028 38 0 0.0 0.0 0.00 0.00 0.00 94 1016.5
20260502111553 38 0 0.0 0.0 0.00 0.00 0.00 94 1016.4
20260502111028 38 0 0.0 0.0 0.00 0.00 0.00 94 1016.4
20260502110527 38 0 0.0 0.0 0.00 0.00 0.00 93 1016.4
20260502110048 38 0 0.0 0.0 0.00 0.00 0.00 94 1016.4
20260502105527 38 0 0.0 0.0 0.00 0.00 0.00 94 1016.3
20260502105028 38 0 0.0 0.0 0.00 0.00 0.00 94 1016.3
20260502104544 38 0 0.0 0.0 0.00 0.00 0.00 93 1016.3
20260502104027 38 0 0.0 0.0 0.00 0.00 0.00 93 1016.3
20260502103527 38 0 0.0 0.0 0.00 0.00 0.00 93 1016.3
20260502103047 39 0 0.0 0.0 0.00 0.00 0.00 93 1016.3
20260502102527 39 0 0.0 0.0 0.00 0.00 0.00 92 1016.2
20260502102027 39 0 0.0 0.0 0.00 0.00 0.00 92 1016.2
20260502101544 39 0 0.0 0.0 0.00 0.00 0.00 92 1016.2
20260502101026 39 0 0.0 0.0 0.00 0.00 0.00 92 1016.3
20260502100527 39 0 0.0 0.0 0.00 0.00 0.00 92 1016.2
20260502091029 41 0 0.0 0.0 0.00 0.00 0.00 91 1016.3
20260502090527 41 0 0.0 0.0 0.00 0.00 0.00 91 1016.3
20260502071030 42 0 0.0 0.0 0.00 0.00 0.00 90 1016.7
20260502070530 42 0 0.0 0.0 0.00 0.00 0.00 91 1016.7
20260502070048 42 0 0.0 0.0 0.00 0.00 0.00 91 1016.8
20260502065530 42 0 0.0 0.0 0.00 0.00 0.00 91 1016.8
20260502065031 42 0 0.0 0.0 0.00 0.00 0.00 91 1016.8
20260502064550 42 0 0.0 0.0 0.00 0.00 0.00 91 1016.9
20260502064029 42 0 0.0 0.0 0.00 0.00 0.00 91 1017.1
20260502063530 42 0 0.0 0.0 0.00 0.00 0.00 90 1017.0
20260502063101 42 0 0.0 0.0 0.00 0.00 0.00 90 1017.0
20260502062531 42 0 0.0 0.0 0.00 0.00 0.00 90 1017.2
20260502062026 42 0 0.0 0.0 0.00 0.00 0.00 90 1017.3
20260502061548 42 0 0.0 0.0 0.00 0.00 0.00 90 1017.4
20260502061030 42 0 0.0 0.0 0.00 0.00 0.00 90 1017.5
20260502060527 42 0 0.0 0.0 0.00 0.00 0.00 90 1017.3
20260502060050 42 0 0.0 0.0 0.00 0.00 0.00 90 1017.3
20260502055530 42 0 0.0 0.0 0.00 0.00 0.00 90 1017.3
20260502055029 42 0 0.0 0.0 0.00 0.00 0.00 90 1017.2
20260502054543 42 0 0.0 0.0 0.00 0.00 0.00 90 1017.1
20260502054029 42 0 0.0 0.0 0.00 0.00 0.00 89 1017.0
20260502053529 42 0 0.0 0.0 0.00 0.00 0.00 89 1016.7
20260502053055 42 0 0.0 0.0 0.00 0.00 0.00 89 1016.7
20260502052530 42 0 0.0 0.0 0.00 0.00 0.00 88 1016.7
20260502052030 42 0 0.0 0.0 0.00 0.00 0.00 88 1016.7
20260502051548 42 0 0.0 0.0 0.00 0.00 0.00 88 1016.7
20260502051026 42 0 0.0 0.0 0.00 0.00 0.00 87 1016.6
20260502050530 42 0 0.0 0.0 0.00 0.00 0.00 87 1016.5
20260502050047 42 0 0.0 0.0 0.00 0.00 0.00 87 1016.5
20260502045529 43 0 0.0 0.0 0.00 0.00 0.00 87 1016.5
20260502045028 43 0 0.0 0.0 0.00 0.00 0.00 86 1016.4
20260502044542 43 0 0.0 0.0 0.00 0.00 0.00 86 1016.5
20260502044027 43 0 0.0 0.0 0.00 0.00 0.00 86 1016.6
20260502043527 43 0 0.0 0.0 0.00 0.00 0.00 86 1016.7
20260502043042 43 0 0.0 0.0 0.00 0.00 0.00 86 1016.9
20260502042527 43 0 0.0 0.0 0.00 0.00 0.00 86 1016.9
20260502042027 44 0 0.0 0.0 0.00 0.00 0.00 86 1016.9
20260502041539 44 0 0.0 0.0 0.00 0.00 0.00 85 1017.0
20260502041027 44 0 0.0 0.0 0.00 0.00 0.00 85 1017.0
20260502040528 44 0 0.0 0.0 0.00 0.00 0.00 84 1017.1
20260502040040 44 0 0.0 0.0 0.00 0.00 0.00 84 1017.1
20260502035529 44 0 0.0 0.0 0.00 0.00 0.00 83 1017.1
20260502035029 45 0 0.0 0.0 0.00 0.00 0.00 83 1017.2
20260502034545 45 0 0.0 0.0 0.00 0.00 0.00 81 1017.2
20260502034027 45 0 0.0 0.0 0.00 0.00 0.00 81 1017.4
20260502033526 45 0 0.0 0.0 0.00 0.00 0.00 81 1017.5
20260502033048 45 0 0.0 0.0 0.00 0.00 0.00 80 1017.6
20260502032531 46 0 0.0 0.0 0.00 0.00 0.00 80 1017.6
20260502032028 46 0 0.0 0.0 0.00 0.00 0.00 80 1017.6
20260502031544 46 0 0.0 0.0 0.00 0.00 0.00 80 1017.6
20260502031026 46 0 0.0 0.0 0.00 0.00 0.00 80 1017.8
20260502030530 47 0 0.0 0.0 0.00 0.00 0.00 79 1017.9
20260502030048 47 0 0.0 0.0 0.00 0.00 0.00 78 1017.8
20260502025525 47 0 0.0 0.0 0.00 0.00 0.00 77 1017.9
20260502025027 47 0 0.0 0.0 0.00 0.00 0.00 76 1017.8
20260502024543 48 0 0.0 0.0 0.00 0.00 0.00 75 1017.7
20260502024026 48 0 0.0 0.0 0.00 0.00 0.00 74 1017.5